Location: Little Arabia
(41.4620°N, 81.7687°W)
Time: 20:53:44
(UTC+00:00)

SAR-Lupe-4 - Pass Details

Date: 29 October 2020
Orbit: 481 x 484 km, 98.2° (Epoch: 25 November)

Event Time Altitude Azimuth Distance (km) Brightness Sun altitude
Rises 23:22:27 0° 13° (NNE) 2,552 7.0 -11.3°
Reaches altitude 10° 23:24:31 10° 13° (NNE) 1,667 6.1 -11.7°
Maximum altitude 23:28:06 89° 93° (E) 488 3.5 -12.3°
Drops below altitude 10° 23:31:40 10° 194° (SSW) 1,654 6.5 -13.0°
Sets 23:33:42 0° 194° (SSW) 2,529 7.5 -13.4°
